Погода в Ижевске

Хотите узнать прогноз погоды в Ижевске? Тогда Вам сюда: Погода в Ижевске

Поиск расширенной информации на нашем сайте:

Полезная информация:

Новости сайта



02.01.2020
Опубликован Долгосрочный прогноз погоды по городам России и ближнего зарубежья на январь 2020 года.
Карты: Прогноз на январь и февраль 2020 года, Сравнение прогнозируемой аномалии приземной температуры воздуха на январь 2020 года по разным моделям.




Погода в Ижевске - сегодня

Время (UTC), дата Ветер
(°,м/с) 
Видим.   Явления Облачность Т
(°С)
Тd
(°С)
f(%) Тe
(°С)
Pmin
(гПа)
dP
(гПа)
Po
(мм)
O2
(г/м3)
Тmin Tmax R s Состояние
почвы
21 22.09.20 280 (З) 5-9{10}  10 км    9/9 600 м кучево-дожд. 
[Cb cap]
+12.1 +8 76 +11  998.3  -1.9  734  282           
00 23.09.20 290 (З) 3-7{12}  10 км  слаб. ливневой дождь  10/10 600 м кучево-дожд. 
[Cb cap]
+9.9 +6.5 79 +9  999.8  1.3  735  285           
03 23.09.20 300 (СЗ) 3-7{09}  10 км  слаб. ливневой дождь  10/10 600 м кучево-дожд. 
[Cb cap]
+8.1 +5.2 82 +7  1001.3  1.5  737  287  +8      влажная 
06 23.09.20 310 (СЗ) 10 км  {ливн. осадки}  10/0 средняя, верхняя 
[Ac trans|Ci fib]
+10.2 +5.4 72 +9  1004.4  3.1  739  286           
09 23.09.20 290 (З) 4-7{11}  10 км    10/5 1000 м средняя, верхняя 
[Sc|Ac trans|Ci fib]
+12.3 +3 53 +12  1006.8  2.4  741  285           
12 23.09.20 280 (З) 7-10{11}  10 км    9/3 1000 м средняя 
[Sc|Ac trans]
+13.3 +1.8 46 +12  1008.2  1.5  742  285           
15 23.09.20 310 (СЗ) 3-5{10}  10 км    10/0 средняя, верхняя 
[Ac trans|Ci fib]
+10.5 +2.6 58 +10  1012.7  4.2  745  289    +13.6       
18 23.09.20 320 (СЗ) 2-3{05}  10 км    6/0 средняя 
[Ac trans]
+7 +2.9 75 +7  1015.3  2.4  747  293           
21 23.09.20 тихо () -2{03}  10 км    4/0 средняя 
[Ac trans]
+4.4 +1.9 84 +4  1018.1  2.5  749  297           
00 24.09.20 тихо () -2{03}  10 км    3/0 верхняя 
[Ci fib]
+2.4 +0.8 89 +2  1020.7  2.4  750  300           
03 24.09.20 тихо () -2{03}  10 км    3/0 верхняя 
[Ci fib]
+2 +1.2 94 +2  1022.3  1.6  752  300  +1.8        сухая 
06 24.09.20 тихо () -1{02}  10 км    ясно 
+6.9 +2.8 75 +7  1024.5  2.5  754  296  +1.5         
09 24.09.20 тихо () -3{06}  10 км    1/1 1500 м 
[Cu hum]
+12.2 +4 57 +12  1025.1  0.9  754  290           
12 24.09.20 240 (ЮЗ) 1-2{04}  10 км    ясно 
+13.9 +3.2 48 +15  1025.3  0.3  754  289           
15 24.09.20 тихо () -1{03}  10 км    4/0 верхняя 
[Ci fib]
+10.1 +5.3 72 +10  1025.8  0.3  755  292    +14.9       
18 24.09.20 180 (Ю) 1-2{02}  10 км    ясно 
+8 +5.1 82 +9  1026.8  0.8  755  295           
21 24.09.20 тихо () -2{03}  10 км    ясно 
+4.8 +3.6 92 +5  1028.3  1.2  756  299           
00 25.09.20 тихо () -2{03}  10 км    ясно 
+2.6 +1.6 93 +3  1029.5  757  302           
03 25.09.20 100 (В) 1-2{03}  10 км    1/0 верхняя 
[Ci fib]
+1.2 +0.4 94 +2  1029.9  0.3  757  304  +1        сухая 
06 25.09.20 тихо () -2{03}  10 км    ясно 
+6.8 +1 66 +7  1020.1  0.7  758  298  +1.2         
09 25.09.20 150 (ЮВ) 2-3{05}  10 км    3/0 верхняя 
[Ci fib]
+16.6 +3.4 41 +17  1029.4  758  287           
12 25.09.20 210 (ЮЗ) 2-3{05}  10 км    ясно 
+17.2 +2.8 38 +18  1029.5  -0.1  758  287           
15 25.09.20 тихо () -2{03}  10 км    6/0 верхняя 
[Ci fib]
+13.8 +6.8 63 +14  1029.4  -0.2  757  289    +18       
18 25.09.20 тихо () -2{03}  10 км    4/0 
+9.5 +4.3 70 +10  1029.9  0.2  758  294           
21 25.09.20 тихо () -1{02}  10 км    4/0 верхняя 
[Ci fib]
+5 +1.7 79 +5  1030.7  0.5  758  300           
Время (UTC), дата Ветер
(°,м/с) 
Видим.   Явления Облачность Т
(°С)
Тd
(°С)
f(%) Тe
(°С)
Pmin
(гПа)
dP
(гПа)
Po
(мм)
O2
(г/м3)
Тmin Tmax R s Состояние
почвы

Для получения пояснительной информации подведите курсор к названию столбца.

ПОГОДА в Ижевске - архив

Всё, что Вы хотите узнать о погоде в Ижевске - удобно и подробно!

Выберите нужную дату (начиная с 1 января 2019* года) и нажмите кнопку "Найти".
Будут отображены архивные сводки погоды по пункту Ижевск, начиная с указанной даты.


Отображать данные в формате CSV (для использования в таблицах Excel)


Внимание! Наш архив погоды предназначен исключительно для личного некоммерческого использования в познавательных целях. Если Вам необходимы официальные справки о состоянии погоды (для производственных, юридических, коммерческих и т.п. целей), обращайтесь в органы Росгидромета.

*Примечание: данная дата относится к архиву по метеостанциям СССР (Россия, СНГ, Балтия).
Архив по метеостанциям Зарубежной Европы и Азии (кроме Китая) хранится 10 дней, по другим регионам земного шара (Китай, Африка, Америка, Австралия, Океания) - 1 день.

Ижевск - район местоположения метеостанции


Название, широта, долгота, высота метеостанции:
Ижевск 56.8°ш. 53.4°д. 159 м над ур. моря [Российская Федерация]

Дополнительная информация

В oтличие oт бoльшинства пoгoдных сайтoв мы публикуем пoдрoбную метеoинфoрмацию в детальнoм прoфессиoнальнoм фoрмате.

Характеристики температуры и влажнoсти вoздуха измеряются на высoте 2 м в тени вдали oт зданий и деревьев.
Скoрoсть ветра измеряется на высoте 10 м (на урoвне рoста челoвека скoрoсть ветра ниже в 1.5-2 раза). Если метеoстанция нахoдится в гoрoде или в лесу, тo скoрoсть ветра занижена на 2-4 м/с пo сравнению с oткрытым местoм. Скoрoсть ветра над акватoриями крупных рек и oзёр, а также на вершинах хoлмoв на 2-5 м/с выше, чем в oбычных услoвиях.
Атмoсфернoе давление в разных тoчках местнoсти мoжет значительнo oтличаться oт давления на метеoстанции, в зависимoсти oт услoвий рельефа (при пoдъёме на 10 м давление пoнижается примернo на 1 мм рт.ст.).